This is the latest recevied weather packets stored in our database for station/object KJ7IVE-13. If no packets are shown the sender has not sent any weather packets the latest 10 day(s).
| Time | Temp. | Humidity | Pressure | Rain* | Wind** | Luminosity | Snow |
|---|---|---|---|---|---|---|---|
| 1777644821 | 11.11° C | 10% | 1021.7 hPa | 0 mm | - | 154 W/m² | - |
| 1777644519 | 11.11° C | 10% | 1021.8 hPa | 0 mm | - | 143 W/m² | - |
| 1777644215 | 11.11° C | 10% | 1021.8 hPa | 0 mm | - | 134 W/m² | - |
| 1777643911 | 11.11° C | 10% | 1021.7 hPa | 0 mm | - | 128 W/m² | - |
| 1777643610 | 10.56° C | 10% | 1021.7 hPa | 0 mm | - | 105 W/m² | - |
| 1777643306 | 10.56° C | 10% | 1021.6 hPa | 0 mm | - | 100 W/m² | - |
| 1777643003 | 10° C | 10% | 1021.7 hPa | 0 mm | - | 76 W/m² | - |
| 1777642699 | 10° C | 10% | 1021.5 hPa | 0 mm | - | 59 W/m² | - |
| 1777642397 | 10.56° C | 10% | 1021 hPa | 0 mm | - | 53 W/m² | - |
| 1777642093 | 10.56° C | 10% | 1021.4 hPa | 0 mm | - | 47 W/m² | - |
| 1777641789 | 10° C | 10% | 1021.4 hPa | 0 mm | - | 42 W/m² | - |
| 1777641489 | 10° C | 10% | 1021.1 hPa | 0 mm | - | 38 W/m² | - |
| 1777641185 | 9.44° C | 10% | 1020.9 hPa | 0 mm | - | 32 W/m² | - |
| 1777640579 | 8.33° C | 10% | 1021.1 hPa | 0 mm | - | 25 W/m² | - |
| 1777640275 | 8.33° C | 10% | 1021.1 hPa | 0 mm | - | 19 W/m² | - |
| 1777639061 | 8.33° C | 10% | 1020.6 hPa | 0 mm | - | 7 W/m² | - |
| 1777638758 | 8.33° C | 10% | 1020.7 hPa | 0 mm | - | 4 W/m² | - |
| 1777638454 | 8.33° C | 10% | 1020.8 hPa | 0 mm | - | 2 W/m² | - |
| 1777638151 | 8.89° C | 10% | 1020.8 hPa | 0 mm | - | 0 W/m² | - |
| 1777637846 | 8.89° C | 10% | 1020.7 hPa | 0 mm | - | 0 W/m² | - |
| 1777637241 | 8.89° C | 10% | 1020.7 hPa | 0 mm | - | 0 W/m² | - |
| 1777636938 | 8.89° C | 10% | 1020.4 hPa | 0 mm | - | 0 W/m² | - |
| 1777636634 | 8.33° C | 10% | 1020.4 hPa | 0 mm | - | 0 W/m² | - |
| 1777636330 | 8.89° C | 10% | 1020.3 hPa | 0 mm | - | 0 W/m² | - |
| 1777636029 | 8.89° C | 10% | 1020.6 hPa | 0 mm | - | 0 W/m² | - |
* Rain latest hour (hover to see other rain measurements)
** Current wind speed in m/s (hover to see current wind gust speed)